Time,TemperatureF,DewpointF,PressureIn,WindDirection,WindDirectionDegrees,WindSpeedMPH,WindSpeedGustMPH,Humidity,HourlyPrecipIn,Conditions,Clouds,dailyrainin,SoftwareType,DateUTC
2013-04-02 00:02:00,30.0,17.0,30.24,North,350,0.0,6.0,59,0.00,,,0.00,,2013-04-02 05:02:00,
2013-04-02 00:12:00,30.0,17.0,30.24,North,350,0.0,6.0,59,0.00,,,0.00,,2013-04-02 05:12:00,
2013-04-02 00:22:00,30.0,18.0,30.24,NNW,329,2.0,5.0,60,0.00,,,0.00,,2013-04-02 05:22:00,
2013-04-02 00:32:00,29.0,17.0,30.24,NNW,329,1.0,6.0,60,0.00,,,0.00,,2013-04-02 05:32:00,
2013-04-02 00:42:00,29.0,17.0,30.24,NNW,329,1.0,6.0,60,0.00,,,0.00,,2013-04-02 05:42:00,
2013-04-02 00:52:00,29.0,17.0,30.24,NNW,343,0.0,4.0,61,0.00,,,0.00,,2013-04-02 05:52:00,
2013-04-02 01:02:00,29.0,17.0,30.25,NNW,347,0.0,3.0,61,0.00,,,0.00,,2013-04-02 06:02:00,
2013-04-02 01:12:00,29.0,17.0,30.25,NNW,347,0.0,3.0,61,0.00,,,0.00,,2013-04-02 06:12:00,
2013-04-02 01:22:00,29.0,17.0,30.25,NNW,347,0.0,4.0,61,0.00,,,0.00,,2013-04-02 06:22:00,
2013-04-02 01:32:00,29.0,17.0,30.26,NW,324,1.0,4.0,61,0.00,,,0.00,,2013-04-02 06:32:00,
2013-04-02 01:42:00,29.0,17.0,30.26,NW,324,1.0,4.0,61,0.00,,,0.00,,2013-04-02 06:42:00,
2013-04-02 01:52:00,29.0,18.0,30.26,NW,324,0.0,1.0,62,0.00,,,0.00,,2013-04-02 06:52:00,
2013-04-02 02:02:00,28.0,17.0,30.27,NW,324,0.0,1.0,62,0.00,,,0.00,,2013-04-02 07:02:00,
2013-04-02 02:12:00,28.0,17.0,30.27,NW,324,0.0,1.0,62,0.00,,,0.00,,2013-04-02 07:12:00,
2013-04-02 02:22:00,28.0,17.0,30.26,NW,324,0.0,1.0,64,0.00,,,0.00,,2013-04-02 07:22:00,
2013-04-02 02:32:00,28.0,18.0,30.26,NW,324,0.0,0.0,65,0.00,,,0.00,,2013-04-02 07:32:00,
2013-04-02 02:42:00,28.0,18.0,30.26,NW,324,0.0,0.0,65,0.00,,,0.00,,2013-04-02 07:42:00,
2013-04-02 02:52:00,27.0,17.0,30.26,NW,324,0.0,1.0,66,0.00,,,0.00,,2013-04-02 07:52:00,
2013-04-02 03:02:00,27.0,18.0,30.26,NW,324,0.0,3.0,67,0.00,,,0.00,,2013-04-02 08:02:00,
2013-04-02 03:22:00,27.0,18.0,30.26,NW,324,0.0,2.0,67,0.00,,,0.00,,2013-04-02 08:22:00,
2013-04-02 03:32:00,27.0,18.0,30.25,NW,324,0.0,4.0,68,0.00,,,0.00,,2013-04-02 08:32:00,
2013-04-02 03:42:00,27.0,18.0,30.25,NW,324,0.0,4.0,68,0.00,,,0.00,,2013-04-02 08:42:00,
2013-04-02 03:52:00,27.0,18.0,30.26,NW,324,0.0,2.0,68,0.00,,,0.00,,2013-04-02 08:52:00,
2013-04-02 04:02:00,27.0,18.0,30.25,NW,324,0.0,0.0,68,0.00,,,0.00,,2013-04-02 09:02:00,
2013-04-02 04:12:00,27.0,18.0,30.25,NW,324,0.0,0.0,68,0.00,,,0.00,,2013-04-02 09:12:00,
2013-04-02 04:22:00,27.0,18.0,30.26,NW,324,0.0,1.0,69,0.00,,,0.00,,2013-04-02 09:22:00,
2013-04-02 04:32:00,27.0,18.0,30.26,NW,324,0.0,0.0,68,0.00,,,0.00,,2013-04-02 09:32:00,
2013-04-02 04:43:00,27.0,18.0,30.26,NW,324,0.0,0.0,68,0.00,,,0.00,,2013-04-02 09:43:00,
2013-04-02 04:52:00,26.0,18.0,30.26,NW,324,0.0,3.0,70,0.00,,,0.00,,2013-04-02 09:52:00,
2013-04-02 05:03:00,26.0,18.0,30.26,NW,324,0.0,1.0,70,0.00,,,0.00,,2013-04-02 10:03:00,
2013-04-02 05:13:00,26.0,18.0,30.26,NW,324,0.0,1.0,70,0.00,,,0.00,,2013-04-02 10:13:00,
2013-04-02 05:23:00,25.0,17.0,30.26,NW,324,0.0,1.0,70,0.00,,,0.00,,2013-04-02 10:23:00,
2013-04-02 05:33:00,25.0,18.0,30.27,NW,324,0.0,0.0,73,0.00,,,0.00,,2013-04-02 10:33:00,
2013-04-02 05:42:00,25.0,18.0,30.27,NW,324,0.0,0.0,73,0.00,,,0.00,,2013-04-02 10:42:00,
2013-04-02 05:52:00,23.0,16.0,30.27,NW,323,2.0,3.0,75,0.00,,,0.00,,2013-04-02 10:52:00,
2013-04-02 06:02:00,22.0,16.0,30.27,NW,323,0.0,2.0,77,0.00,,,0.00,,2013-04-02 11:02:00,
2013-04-02 06:12:00,22.0,16.0,30.27,NW,323,0.0,2.0,77,0.00,,,0.00,,2013-04-02 11:12:00,
2013-04-02 06:22:00,22.0,16.0,30.28,WSW,248,0.0,3.0,78,0.00,,,0.00,,2013-04-02 11:22:00,
2013-04-02 06:32:00,21.0,15.0,30.28,WSW,248,0.0,2.0,78,0.00,,,0.00,,2013-04-02 11:32:00,
2013-04-02 06:43:00,21.0,15.0,30.28,WSW,248,0.0,2.0,78,0.00,,,0.00,,2013-04-02 11:43:00,
2013-04-02 06:53:00,21.0,16.0,30.28,WSW,248,0.0,3.0,79,0.00,,,0.00,,2013-04-02 11:53:00,
2013-04-02 07:02:00,21.0,16.0,30.28,WSW,248,0.0,0.0,79,0.00,,,0.00,,2013-04-02 12:02:00,
2013-04-02 07:12:00,21.0,16.0,30.28,WSW,248,0.0,0.0,79,0.00,,,0.00,,2013-04-02 12:12:00,
2013-04-02 07:22:00,21.0,15.0,30.29,WSW,248,0.0,0.0,78,0.00,,,0.00,,2013-04-02 12:22:00,
2013-04-02 07:32:00,22.0,16.0,30.29,WSW,248,0.0,0.0,79,0.00,,,0.00,,2013-04-02 12:32:00,
2013-04-02 07:52:00,22.0,17.0,30.30,WSW,248,0.0,0.0,80,0.00,,,0.00,,2013-04-02 12:52:00,
2013-04-02 08:02:00,24.0,19.0,30.30,WSW,248,0.0,0.0,80,0.00,,,0.00,,2013-04-02 13:02:00,
2013-04-02 08:12:00,26.0,20.0,30.31,WNW,286,1.0,5.0,78,0.00,,,0.00,,2013-04-02 13:12:00,
2013-04-02 08:22:00,26.0,20.0,30.31,WNW,286,1.0,5.0,78,0.00,,,0.00,,2013-04-02 13:22:00,
2013-04-02 08:32:00,28.0,20.0,30.31,NW,309,2.0,5.0,73,0.00,,,0.00,,2013-04-02 13:32:00,
2013-04-02 08:42:00,28.0,20.0,30.31,NW,309,2.0,5.0,73,0.00,,,0.00,,2013-04-02 13:42:00,
2013-04-02 08:52:00,29.0,21.0,30.32,WNW,294,3.0,5.0,71,0.00,,,0.00,,2013-04-02 13:52:00,
2013-04-02 09:02:00,30.0,21.0,30.32,WNW,296,4.0,6.0,70,0.00,,,0.00,,2013-04-02 14:02:00,
2013-04-02 09:12:00,30.0,21.0,30.32,WNW,296,4.0,6.0,70,0.00,,,0.00,,2013-04-02 14:12:00,
2013-04-02 09:22:00,31.0,22.0,30.32,West,273,4.0,6.0,69,0.00,,,0.00,,2013-04-02 14:22:00,
2013-04-02 09:32:00,32.0,22.0,30.31,NW,314,2.0,6.0,65,0.00,,,0.00,,2013-04-02 14:32:00,
2013-04-02 09:42:00,32.0,22.0,30.31,NW,314,2.0,6.0,65,0.00,,,0.00,,2013-04-02 14:42:00,
2013-04-02 09:52:00,33.0,21.0,30.31,NNE,13,1.0,5.0,61,0.00,,,0.00,,2013-04-02 14:52:00,
2013-04-02 10:02:00,35.0,23.0,30.31,NW,323,4.0,6.0,60,0.00,,,0.00,,2013-04-02 15:02:00,
2013-04-02 10:11:00,35.0,23.0,30.31,NW,323,4.0,6.0,60,0.00,,,0.00,,2013-04-02 15:11:00,
2013-04-02 10:22:00,36.0,20.0,30.31,NNW,346,3.0,6.0,52,0.00,,,0.00,,2013-04-02 15:22:00,
2013-04-02 10:33:00,36.0,17.0,30.31,WNW,300,3.0,7.0,45,0.00,,,0.00,,2013-04-02 15:33:00,
2013-04-02 10:43:00,36.0,17.0,30.31,WNW,300,3.0,7.0,45,0.00,,,0.00,,2013-04-02 15:43:00,
2013-04-02 10:54:00,37.0,19.0,30.31,West,269,2.0,8.0,48,0.00,,,0.00,,2013-04-02 15:54:00,
2013-04-02 11:03:00,37.0,16.0,30.31,WSW,252,2.0,8.0,42,0.00,,,0.00,,2013-04-02 16:03:00,
2013-04-02 11:13:00,37.0,16.0,30.31,WSW,252,2.0,8.0,42,0.00,,,0.00,,2013-04-02 16:13:00,
2013-04-02 11:24:00,38.0,17.0,30.31,NW,322,4.0,6.0,42,0.00,,,0.00,,2013-04-02 16:24:00,
2013-04-02 11:34:00,40.0,18.0,30.31,North,11,1.0,6.0,40,0.00,,,0.00,,2013-04-02 16:34:00,
2013-04-02 11:43:00,40.0,18.0,30.31,North,11,1.0,6.0,40,0.00,,,0.00,,2013-04-02 16:43:00,
2013-04-02 11:52:00,40.0,15.0,30.31,North,360,5.0,9.0,36,0.00,,,0.00,,2013-04-02 16:52:00,
2013-04-02 12:05:00,41.0,15.0,30.30,NW,306,5.0,8.0,34,0.00,,,0.00,,2013-04-02 17:05:00,
2013-04-02 12:13:00,41.0,15.0,30.30,NW,306,5.0,8.0,34,0.00,,,0.00,,2013-04-02 17:13:00,
2013-04-02 12:24:00,41.0,16.0,30.29,NNE,17,4.0,8.0,36,0.00,,,0.00,,2013-04-02 17:24:00,
2013-04-02 12:34:00,42.0,15.0,30.29,NW,326,5.0,9.0,33,0.00,,,0.00,,2013-04-02 17:34:00,
2013-04-02 12:43:00,42.0,15.0,30.29,NW,326,5.0,9.0,33,0.00,,,0.00,,2013-04-02 17:43:00,
2013-04-02 12:53:00,42.0,13.0,30.28,NNW,332,5.0,10.0,30,0.00,,,0.00,,2013-04-02 17:53:00,
2013-04-02 13:03:00,43.0,14.0,30.28,NW,314,5.0,10.0,31,0.00,,,0.00,,2013-04-02 18:03:00,
2013-04-02 13:12:00,43.0,14.0,30.28,NW,314,5.0,10.0,31,0.00,,,0.00,,2013-04-02 18:12:00,
2013-04-02 13:23:00,43.0,13.0,30.28,NW,311,6.0,11.0,29,0.00,,,0.00,,2013-04-02 18:23:00,
2013-04-02 13:34:00,43.0,12.0,30.28,West,280,3.0,10.0,28,0.00,,,0.00,,2013-04-02 18:34:00,
2013-04-02 13:43:00,43.0,12.0,30.28,West,280,3.0,10.0,28,0.00,,,0.00,,2013-04-02 18:43:00,
2013-04-02 13:53:00,44.0,9.0,30.27,NNW,327,5.0,14.0,23,0.00,,,0.00,,2013-04-02 18:53:00,
2013-04-02 14:03:00,44.0,10.0,30.27,NNW,343,9.0,15.0,25,0.00,,,0.00,,2013-04-02 19:03:00,
2013-04-02 14:13:00,44.0,10.0,30.27,NNW,343,9.0,15.0,25,0.00,,,0.00,,2013-04-02 19:13:00,
2013-04-02 14:23:00,44.0,10.0,30.26,WNW,301,6.0,16.0,25,0.00,,,0.00,,2013-04-02 19:23:00,
2013-04-02 14:33:00,45.0,11.0,30.27,West,277,6.0,16.0,25,0.00,,,0.00,,2013-04-02 19:33:00,
2013-04-02 14:45:00,45.0,11.0,30.27,West,277,6.0,16.0,25,0.00,,,0.00,,2013-04-02 19:45:00,
2013-04-02 14:53:00,45.0,12.0,30.26,NW,308,6.0,14.0,26,0.00,,,0.00,,2013-04-02 19:53:00,
2013-04-02 15:03:00,45.0,10.0,30.26,NNW,338,8.0,14.0,24,0.00,,,0.00,,2013-04-02 20:03:00,
2013-04-02 15:13:00,45.0,10.0,30.26,NNW,338,8.0,14.0,24,0.00,,,0.00,,2013-04-02 20:13:00,
2013-04-02 15:22:00,46.0,12.0,30.26,NNW,332,5.0,13.0,25,0.00,,,0.00,,2013-04-02 20:22:00,
2013-04-02 15:33:00,45.0,11.0,30.25,West,265,10.0,20.0,25,0.00,,,0.00,,2013-04-02 20:33:00,
2013-04-02 15:43:00,45.0,11.0,30.25,West,265,10.0,20.0,25,0.00,,,0.00,,2013-04-02 20:43:00,
2013-04-02 15:54:00,45.0,11.0,30.25,West,265,10.0,20.0,25,0.00,,,0.00,,2013-04-02 20:54:00,
2013-04-02 16:03:00,45.0,15.0,30.25,NW,304,8.0,14.0,30,0.00,,,0.00,,2013-04-02 21:03:00,
2013-04-02 16:13:00,45.0,15.0,30.25,NW,304,8.0,14.0,30,0.00,,,0.00,,2013-04-02 21:13:00,
2013-04-02 16:23:00,44.0,17.0,30.25,North,360,5.0,16.0,33,0.00,,,0.00,,2013-04-02 21:23:00,
2013-04-02 16:34:00,45.0,16.0,30.25,ENE,67,4.0,13.0,31,0.00,,,0.00,,2013-04-02 21:34:00,
2013-04-02 16:43:00,45.0,16.0,30.25,ENE,67,4.0,13.0,31,0.00,,,0.00,,2013-04-02 21:43:00,
2013-04-02 16:54:00,45.0,16.0,30.25,WSW,257,6.0,14.0,31,0.00,,,0.00,,2013-04-02 21:54:00,
2013-04-02 17:04:00,45.0,15.0,30.25,North,350,7.0,16.0,30,0.00,,,0.00,,2013-04-02 22:04:00,
2013-04-02 17:14:00,45.0,15.0,30.25,North,350,7.0,16.0,30,0.00,,,0.00,,2013-04-02 22:14:00,
2013-04-02 17:23:00,45.0,17.0,30.25,NW,324,6.0,16.0,32,0.00,,,0.00,,2013-04-02 22:23:00,
2013-04-02 17:33:00,44.0,19.0,30.25,NW,307,3.0,11.0,37,0.00,,,0.00,,2013-04-02 22:33:00,
2013-04-02 17:43:00,44.0,19.0,30.25,NW,307,3.0,11.0,37,0.00,,,0.00,,2013-04-02 22:43:00,
2013-04-02 17:53:00,43.0,17.0,30.25,North,355,4.0,11.0,34,0.00,,,0.00,,2013-04-02 22:53:00,
2013-04-02 18:02:00,44.0,17.0,30.25,North,5,4.0,11.0,34,0.00,,,0.00,,2013-04-02 23:02:00,
2013-04-02 18:12:00,44.0,17.0,30.25,North,5,4.0,11.0,34,0.00,,,0.00,,2013-04-02 23:12:00,
2013-04-02 18:23:00,43.0,17.0,30.26,NNW,340,4.0,12.0,34,0.00,,,0.00,,2013-04-02 23:23:00,
2013-04-02 18:42:00,43.0,17.0,30.26,North,355,4.0,12.0,35,0.00,,,0.00,,2013-04-02 23:42:00,
2013-04-02 18:54:00,42.0,15.0,30.26,NNW,333,6.0,13.0,33,0.00,,,0.00,,2013-04-02 23:54:00,
2013-04-02 19:03:00,42.0,16.0,30.27,North,10,4.0,11.0,34,0.00,,,0.00,,2013-04-03 00:03:00,
2013-04-02 19:13:00,42.0,16.0,30.27,North,10,4.0,11.0,34,0.00,,,0.00,,2013-04-03 00:13:00,
2013-04-02 19:23:00,41.0,15.0,30.27,NNW,340,3.0,15.0,35,0.00,,,0.00,,2013-04-03 00:23:00,
2013-04-02 19:33:00,40.0,16.0,30.27,NNW,348,5.0,9.0,37,0.00,,,0.00,,2013-04-03 00:33:00,
2013-04-02 19:45:00,40.0,16.0,30.27,NNW,348,5.0,9.0,37,0.00,,,0.00,,2013-04-03 00:45:00,
2013-04-02 19:53:00,39.0,17.0,30.27,NNW,340,4.0,7.0,41,0.00,,,0.00,,2013-04-03 00:53:00,
2013-04-02 20:03:00,38.0,18.0,30.28,NNW,340,3.0,9.0,43,0.00,,,0.00,,2013-04-03 01:03:00,
2013-04-02 20:12:00,38.0,18.0,30.28,NNW,340,3.0,9.0,43,0.00,,,0.00,,2013-04-03 01:12:00,
2013-04-02 20:22:00,38.0,18.0,30.29,North,351,3.0,10.0,44,0.00,,,0.00,,2013-04-03 01:22:00,
2013-04-02 20:33:00,37.0,17.0,30.29,NNW,342,4.0,7.0,44,0.00,,,0.00,,2013-04-03 01:33:00,
2013-04-02 20:42:00,37.0,17.0,30.29,NNW,342,4.0,7.0,44,0.00,,,0.00,,2013-04-03 01:42:00,
2013-04-02 20:52:00,37.0,17.0,30.30,NNW,342,3.0,9.0,43,0.00,,,0.00,,2013-04-03 01:52:00,
2013-04-02 21:03:00,36.0,17.0,30.30,NNW,330,2.0,6.0,45,0.00,,,0.00,,2013-04-03 02:03:00,
2013-04-02 21:13:00,36.0,17.0,30.30,NNW,330,2.0,6.0,45,0.00,,,0.00,,2013-04-03 02:13:00,
2013-04-02 21:23:00,36.0,17.0,30.31,North,355,3.0,7.0,46,0.00,,,0.00,,2013-04-03 02:23:00,
2013-04-02 21:33:00,35.0,16.0,30.31,NNW,336,5.0,7.0,46,0.00,,,0.00,,2013-04-03 02:33:00,
2013-04-02 21:43:00,35.0,16.0,30.31,NNW,336,5.0,7.0,46,0.00,,,0.00,,2013-04-03 02:43:00,
2013-04-02 21:52:00,35.0,17.0,30.32,NNW,346,4.0,6.0,47,0.00,,,0.00,,2013-04-03 02:52:00,
2013-04-02 22:04:00,35.0,17.0,30.32,North,360,2.0,6.0,48,0.00,,,0.00,,2013-04-03 03:04:00,
2013-04-02 22:13:00,35.0,17.0,30.32,North,360,2.0,6.0,48,0.00,,,0.00,,2013-04-03 03:13:00,
2013-04-02 22:22:00,34.0,17.0,30.32,North,350,1.0,5.0,49,0.00,,,0.00,,2013-04-03 03:22:00,
2013-04-02 22:37:00,34.0,17.0,30.32,North,5,0.0,3.0,50,0.00,,,0.00,,2013-04-03 03:37:00,
2013-04-02 22:43:00,34.0,17.0,30.32,North,5,0.0,3.0,50,0.00,,,0.00,,2013-04-03 03:43:00,
2013-04-02 22:54:00,33.0,16.0,30.33,NNW,345,1.0,4.0,50,0.00,,,0.00,,2013-04-03 03:54:00,
2013-04-02 23:03:00,33.0,17.0,30.33,North,360,1.0,7.0,51,0.00,,,0.00,,2013-04-03 04:03:00,
2013-04-02 23:12:00,33.0,17.0,30.33,North,360,1.0,7.0,51,0.00,,,0.00,,2013-04-03 04:12:00,
2013-04-02 23:23:00,33.0,17.0,30.32,North,360,3.0,5.0,52,0.00,,,0.00,,2013-04-03 04:23:00,
2013-04-02 23:33:00,33.0,18.0,30.33,North,5,2.0,4.0,53,0.00,,,0.00,,2013-04-03 04:33:00,
2013-04-02 23:42:00,33.0,18.0,30.33,North,5,2.0,4.0,53,0.00,,,0.00,,2013-04-03 04:42:00,
2013-04-02 23:53:00,32.0,18.0,30.32,North,5,2.0,3.0,55,0.00,,,0.00,,2013-04-03 04:53:00,